Location: *
(34.9945°S, 91.1424°E)
Time: 11:55:08
(UTC+00:00)

Daily predictions for brighter satellites

Satellite Brightness Start Highest point End
(mag) Time Altitude Azimuth Time Altitude Azimuth Time Altitude Azimuth
Cosmos 1470 4.2 12:00:01 10° NNW 12:03:47 40° W 12:07:36 10° S
YAOGAN 6 2.6 12:01:22 10° SSE 12:04:55 58° E 12:08:25 10° N
SL-24 R/B 4.0 12:02:18 10° NE 12:05:51 42° ESE 12:09:23 10° S
AQUARIUS 4.2 12:01:38 10° SSE 12:06:09 59° E 12:10:35 10° N
MOS 1 Rocket 4.2 12:03:48 10° NE 12:08:39 34° ESE 12:13:28 10° S
BREEZE-M DEB (TANK) 4.5 12:08:31 10° S 12:10:06 15° SSE 12:10:06 15° SSE
Lacrosse 4 Rocket 3.5 12:08:27 10° WNW 12:11:47 23° WSW 12:15:12 10° S
FALCON 9 DEB 4.5 12:08:44 10° WNW 12:11:57 34° SW 12:14:22 16° SSE
Exosat Rocket 4.4 12:06:28 10° N 12:12:48 76° ENE 12:22:03 10° SSE
NOSS 0 Rocket 4.0 12:09:27 10° SSW 12:15:42 84° WNW 12:21:52 10° NNE
Cosmos 923 Rocket 4.4 12:10:50 10° S 12:15:46 40° ESE 12:20:40 10° NE
Cosmos 1626 Rocket 3.6 12:15:02 10° S 12:19:30 82° W 12:23:57 10° N
Cosmos 1417 Rocket 4.4 12:13:48 10° N 12:19:56 77° E 12:26:07 10° S
SL-08 R/B 4.5 12:13:46 10° S 12:20:09 66° E 12:26:25 10° NNE
GEOS 3 Rocket 4.4 12:19:06 24° E 12:21:00 30° SE 12:25:27 10° SSW
USA 215 3.3 12:15:14 10° ENE 12:21:40 62° SE 12:28:09 10° SW
Cosmos 1980 3.6 12:17:21 10° SSW 12:23:05 82° ESE 12:28:45 10° NNE
NOAA 12 4.0 12:18:06 10° SSE 12:23:28 77° ENE 12:28:47 10° N
Envisat 3.2 12:18:19 10° S 12:23:28 75° WSW 12:28:33 10° NNW
Cosmos 1758 Rocket 4.1 12:19:28 10° SSE 12:23:40 37° E 12:27:50 10° NNE
Cosmos 2219 Rocket 4.2 12:21:31 10° SW 12:26:22 30° WNW 12:31:11 10° NNW
Cosmos 2297 Rocket 2.9 12:21:10 10° NW 12:26:42 55° WSW 12:32:19 10° SSE
Cosmos 1937 Rocket 3.8 12:24:33 10° N 12:29:28 43° ENE 12:31:31 29° SE
Helios 1A Rocket 3.0 12:28:54 24° SSE 12:31:18 58° ENE 12:35:24 10° N
Cosmos 2228 3.2 12:28:11 10° NNE 12:32:26 48° E 12:33:55 33° SE
Cosmos 1953 3.7 12:33:30 10° NNW 12:37:22 41° W 12:41:17 10° S
Cosmos 2237 Rocket 2.3 12:33:09 10° SSW 12:38:52 79° WNW 12:44:32 10° NNE
Cosmos 44 Rocket 4.4 12:37:37 10° S 12:40:35 26° SSE 12:40:35 26° SSE
CORIOLIS 4.4 12:36:57 10° S 12:42:20 71° WSW 12:47:40 10° NNW
Cosmos 1908 3.2 12:40:40 10° N 12:44:35 83° W 12:46:29 29° S
SJ 16-02 2.3 12:43:46 10° NW 12:47:59 46° WSW 12:51:37 14° S
Okean O Rocket 3.6 12:44:16 10° SSW 12:48:06 28° WSW 12:51:52 10° NW
ARGOS Delta rocket 4.4 12:45:16 10° S 12:49:37 52° WSW 12:54:00 10° NNW
Feng Yun 1-1 Rocket 4.4 12:46:09 10° SSE 12:52:08 87° WSW 12:58:05 10° NNW
Cosmos 2315 Rocket 4.1 12:46:25 10° NNE 12:52:35 53° E 12:55:36 30° SSE
SL-08 ROCKET BODY 4.3 12:50:56 10° S 12:56:52 86° W 13:02:47 10° N
Meteor 2-15 Rocket 4.3 12:54:53 10° N 13:00:58 72° E 13:04:46 24° SSE
NOSS 3-1 (C) 4.4 12:53:54 10° N 13:02:21 48° ENE 13:04:07 43° E
Cosmos 2263 Rocket 3.9 12:57:56 10° NNE 12:59:38 18° NNE 12:59:38 18° NNE
CZ-2C R/B 2.4 13:00:23 10° NNE 13:05:33 80° ESE 13:10:53 10° S
Cosmos 1745 Rocket 4.1 13:00:55 10° S 13:07:05 72° W 13:13:12 10° N
Cosmos 2285 Rocket 4.4 13:05:11 10° N 13:10:06 44° NE 13:10:06 44° NE
Cosmos 2112 Rocket 3.9 13:05:56 10° SSW 13:11:16 87° ESE 13:12:28 56° NNE
Cosmos 2227 Rocket 4.0 13:07:06 10° WNW 13:11:49 27° WSW 13:16:36 10° S
Cosmos 1939 Rocket 4.3 13:20:17 33° NNW 13:20:17 33° NNW 13:22:36 10° NNW
USA 229 DEB 4.1 13:14:01 10° N 13:20:58 52° NE 13:20:58 52° NE
CZ-4 R/B 3.8 13:24:40 16° NNW 13:24:40 16° NNW 13:25:30 10° NNW
USA 229 4.1 13:14:06 10° N 13:21:03 51° NE 13:21:03 51° NE
Okean-O 3.4 13:23:44 48° NW 13:23:44 48° NW 13:27:04 10° NNW
SL-16 R/B 2.4 13:24:47 10° SSW 13:29:32 63° SW 13:29:32 63° SW
Lacrosse 5 3.1 13:40:16 10° SW 13:43:51 40° WSW 13:43:51 40° WSW
Cosmos 1709 Rocket 4.4 13:44:43 10° SSW 13:50:48 58° W 13:56:55 10° N
Cosmos 2227 Rocket 3.7 22:12:15 27° NNE 22:12:15 27° NNE 22:14:44 10° NNE
Cosmos 2082 4.5 22:13:52 49° ESE 22:13:52 49° ESE 22:19:08 10° NE
Atlas Centaur 2 3.1 22:17:28 63° NNW 22:18:01 64° N 22:26:05 10° E
Cosmos 1980 Rocket 3.1 22:20:16 43° SE 22:20:16 43° SE 22:24:07 10° SSE
NOSS 3-1 (C) 3.9 22:28:46 47° SSE 22:29:35 50° SE 22:34:46 10° NE
USA 267 3.1 22:29:17 10° SE 22:35:55 83° SW 22:36:46 70° WNW
Cosmos 841 Rocket 4.3 22:37:46 10° N 22:42:51 52° ENE 22:48:01 10° SSE
SL-16 R/B 4.2 22:39:06 10° NNE 22:43:51 28° ENE 22:48:37 10° SE
Cosmos 2026 Rocket 4.1 22:40:58 10° N 22:47:03 74° E 22:53:17 10° S
USA 229 DEB 3.9 22:45:47 33° SSW 22:48:50 64° SE 22:55:14 10° NE
USA 229 3.9 22:45:52 33° SSW 22:48:57 64° SE 22:55:20 10° NE
Hubble Space Telescope 2.8 22:51:11 20° N 22:51:36 20° NNE 22:54:42 10° ENE
CZ-4B R/B 3.8 22:48:27 10° NNE 22:53:51 58° ESE 22:59:25 10° S
SJ 16-02 1.5 22:59:10 61° N 22:59:10 61° N 23:02:52 10° N
Cosmos 1937 Rocket 4.2 22:56:29 19° S 23:00:05 52° ESE 23:05:08 10° NNE
Aureole 3 Rocket 4.5 22:56:50 12° SSE 23:00:18 40° E 23:05:15 10° NNE
Cosmos 1092 Rocket 3.9 22:54:15 10° NNW 23:00:24 62° W 23:06:36 10° S
NOSS 3-1 (A) 3.9 22:57:24 24° SSW 23:00:48 51° SE 23:06:01 10° NE
Cosmos 1726 3.2 23:02:03 26° SSE 23:03:49 45° E 23:07:25 10° NNE
Cosmos 1340 Rocket 2.7 23:05:19 87° N 23:05:19 87° N 23:09:21 10° N
H-2A R/B 2.8 23:01:43 10° NNE 23:05:39 81° ESE 23:06:02 70° SSE
Cosmos 1674 4.3 23:02:31 10° NNE 23:05:56 34° E 23:09:25 10° SSE
Cosmos 1544 Rocket 3.7 23:07:08 56° NW 23:07:08 56° NW 23:10:44 10° N
Cosmos 2297 Rocket 4.0 23:10:57 15° NW 23:10:57 15° NW 23:12:12 10° NNW
Cosmos 1536 Rocket 3.4 23:04:11 10° N 23:08:32 78° W 23:12:56 10° S
OAO 2 Rocket 3.2 23:07:45 60° W 23:08:42 89° S 23:13:48 10° E
Orbus 7S? 3.5 23:09:35 49° SE 23:09:35 49° SE 23:12:43 10° SE
NOAA 6 3.9 23:04:51 10° N 23:09:59 75° WNW 23:12:49 28° SSW
DELTA 2 R/B (1) 3.7 23:08:06 36° NW 23:10:24 71° NNE 23:16:02 10° ESE
OAO 3 Rocket 3.4 23:11:56 51° WNW 23:12:49 61° NNW 23:17:36 10° ENE
Cosmos 1437 4.3 23:11:37 10° NNE 23:14:24 34° E 23:17:13 10° SSE
Delta 2 Rocket 3.5 23:13:42 59° W 23:14:34 87° N 23:19:40 10° ENE
BREEZE-M DEB (TANK) 4.3 23:12:37 20° S 23:14:40 30° SE 23:23:21 10° E
Meteosat 1 Rocket2 4.0 23:16:47 26° NNW 23:17:20 27° N 23:20:47 10° NE
Meteor 2-13 Rocket 4.4 23:12:57 10° NNW 23:18:57 57° W 23:25:04 10° S
Cosmos 2322 Rocket 3.1 23:18:02 10° N 23:23:34 52° ENE 23:29:08 10° SSE
Meteor 1-16 Rocket 4.4 23:22:26 10° S 23:28:16 73° E 23:33:49 10° NNE
Radarsat Rocket 4.3 23:22:12 10° N 23:29:44 70° WNW 23:36:26 10° SSW
Cosmos 1461 3.2 23:28:39 22° SSW 23:30:57 56° ESE 23:34:44 10° NE
Cosmos 1758 4.3 23:34:28 29° WNW 23:34:28 29° WNW 23:37:17 10° NNW
Envisat 2.9 23:29:17 10° N 23:34:22 81° WNW 23:39:33 10° SSW
CREW DRAGON DEMO-1 DEB 3.0 23:33:11 29° NNW 23:34:33 70° NE 23:37:40 10° SE
ADEOS Rocket 3.0 23:29:49 10° SSE 23:35:22 72° ENE 23:41:08 10° N
NOAA 12 4.1 23:34:45 10° NNE 23:40:00 85° ESE 23:45:20 10° SSW
Okean O Rocket 1.9 23:36:37 10° N 23:40:55 48° W 23:44:35 14° SSW
Cosmos 2263 Rocket 2.6 23:37:29 10° SSW 23:43:13 66° ESE 23:48:51 10° NNE
Meteor 2-8 Rocket 4.5 23:39:29 10° S 23:45:41 86° E 23:51:50 10° N
In-Cosmos 22 4.4 23:41:28 10° NNW 23:46:46 45° WSW 23:52:00 10° S
Cosmos 2208 Rocket 4.4 23:44:42 10° NW 23:49:34 39° WSW 23:54:28 10° S
Cosmos 1814 Rocket 4.3 23:45:38 10° NW 23:50:38 42° WSW 23:55:45 10° S
SKYMED 2 4.0 23:47:41 10° SSE 23:52:04 66° E 23:56:24 10° N
ATLAS 5 CENTAUR R/B 2.7 23:44:56 10° NNW 23:52:12 82° WSW 23:59:05 10° SSE
KORONAS-FOTON 3.9 23:49:21 10° NNW 23:53:04 53° W 23:56:52 10° S
Cosmos 1689 Rocket 2.8 23:51:31 10° S 23:54:19 33° WSW 23:57:04 10° NW
Cosmos 2360 Rocket 3.3 23:49:05 10° N 23:54:29 49° ENE 23:59:56 10° SSE
